« Back
NWS Peachtree City, Ga » Text Product » GA Regional Weather Roundup


Printer-friendly Version
Current Version              Previous Versions:   1  2  3  4  5  6  7  8  9  

Regional Weather Roundup

105
ASUS42 KFFC 200303
RWRGA
WEATHER ROUNDUP FOR GEORGIA
NATIONAL WEATHER SERVICE PEACHTREE CITY GA
1100 PM EDT TUE AUG 19 2014

NOTE: "FAIR" INDICATES FEW OR NO CLOUDS BELOW 12,000 FEET WITH NO
SIGNIFICANT WEATHER AND/OR OBSTRUCTIONS TO VISIBILITY.

* = USE WITH CAUTION. THE STATIONS MARKED WITH AN ASTERISK MAY NOT
REPORT WEATHER SUCH AS PRECIPITATION, FOG, OR THUNDER AND ARE NOT
QUALITY CONTROLLED BY NWS.

THE REMARK "TC" DENOTES TEMPERATURE READING IN DEGREES CELSIUS.

GAZ001>058-200400-
NORTH GEORGIA

CITY           SKY/WX    TMP DP  RH WIND       PRES   REMARKS
ATLANTA        MOCLDY    76  69  79 W6        29.96R
ATHENS         MOCLDY    76  67  73 W3        29.93R
CHAMBLEE       MOCLDY    71  68  90 CALM      29.96R
PEACHTREE CITY PTCLDY    76  72  87 CALM      29.98R
ROME           PTCLDY    74  70  87 W3        29.94R
WEST ATLANTA   MOCLDY    74  69  85 SW3       29.96R
GAINESVILLE    PTCLDY    74  67  78 W5        29.97S
CARTERSVILLE   PTCLDY    73  71  93 CALM      29.95R


CITY           SKY/WX    TMP DP  RH WIND       PRES   REMARKS
DALTON*        CLEAR     72  72 100 CALM      29.95R
MARIETTA       MOCLDY    73  70  91 CALM      29.96R
KENNESAW*      PTCLDY    73  70  88 CALM      29.97R
$$

GAZ059>098-102>109-200400-
CENTRAL GEORGIA

CITY           SKY/WX    TMP DP  RH WIND       PRES   REMARKS
AUGUSTA-BUSH   CLOUDY    75  71  87 CALM      29.90R
AUGUSTA-DANIEL CLOUDY    78  71  79 W3        29.92R
COLUMBUS       PTCLDY    73  70  90 CALM      29.98R
MACON          CLEAR     73  72  96 W7        29.95R
ROBINS AFB     CLEAR     78  71  77 W6        29.94R


CITY           SKY/WX    TMP DP  RH WIND       PRES   REMARKS
LAGRANGE*      PTCLDY    76  74  93 CALM      29.99R
SYLVANIA*      CLOUDY    76  75  97 SW3       29.93R
MILLEDGEVILLE* CLEAR     63  61  94 CALM      29.94R
$$

GAZ099>101-110>166-200400-
SOUTH GEORGIA

CITY           SKY/WX    TMP DP  RH WIND       PRES   REMARKS
SAVANNAH       MOCLDY    77  70  79 SW9       29.94R
VALDOSTA       MOCLDY    75  72  90 CALM      29.98R
ALMA           CLEAR     72  70  93 CALM      29.95S
ST SIMONS      PTCLDY    77  69  76 SW6       29.97R
FT STEWART     MOCLDY    75  69  81 SW6       29.93R
ALBANY         CLOUDY    74  73  97 CALM      29.99R
HUNTER AFB     MOCLDY    77  71  82 SW10      29.92R
MOODY AFB      MOCLDY    74  72  91 SW6       29.97S


CITY           SKY/WX    TMP DP  RH WIND       PRES   REMARKS
BAINBRIDGE*    PTCLDY    77  73  88 SW3       29.99R
MOULTRIE*      CLOUDY    75  73  94 S3        29.99R
VIDALIA*         N/A     73  72  94 W3        29.94S
WAYCROSS*      CLEAR     77  73  85 CALM      29.96S
DOUGLAS*       PTCLDY    73  72  94 SW3       29.97S
$$



USA.gov is the U.S. government's official web portal to all federal, state and local government web resources and services.